[[{"header":{"parameterUnit":"m.s-1","parameterCategory":1,"la1":30.2991,"la2":30.254,"lo1":-89.0895,"lo2":-89.0444,"dy":0.0017,"dx":0.0017,"nx":28,"ny":28,"refTime":"2024-03-04T03:00:00:Z","depth":0,"parameterNumber":2,"parameterNumberName":"U-component_of_WINDS"},"data":[0,0,0,0,0,0,0,0,0,0,0,0,0,0,0,0,0,0,0,0,0,0,0,0,0,0,0,0,0,0,0,0,0,0,0,0,0,0,0,0,0,0,0,0,0,0,0,0,0,0,0,0,0,0,0,0,0,0,-4.5142,-4.5143,0,-4.5222,-4.5223,-4.5224,-4.5165,-4.5162,-4.516,-4.5157,-4.5241,-4.5246,-4.525,0,0,0,0,0,0,0,0,0,0,0,0,0,-4.494,-4.4944,-4.5142,-4.5143,-4.5144,-4.5222,-4.5223,-4.5224,-4.5165,-4.5162,-4.5159,-4.5156,-4.524,-4.5245,-4.5251,0,0,0,0,0,0,0,0,0,0,0,0,0,-4.5025,-4.4945,-4.5142,-4.5124,-4.5123,-4.5222,-4.5223,-4.5225,-4.5166,-4.5162,-4.5158,-4.5155,-4.5238,-4.5245,-4.5251,-4.5373,0,0,-4.5273,-4.5276,0,0,0,0,0,0,0,0,-4.502,-4.5032,-4.5126,-4.5125,-4.5125,-4.518,-4.5183,-4.5274,-4.5167,-4.515,-4.5157,-4.5153,-4.5224,-4.5232,-4.5255,-4.5377,-4.538,-4.5273,-4.5278,-4.5281,-4.5283,0,0,0,0,0,0,0,-4.5014,-4.5028,-4.5174,-4.5127,-4.5126,-4.5113,-4.512,-4.52,-4.5208,-4.5151,-4.5147,-4.5157,-4.5223,-4.5249,-4.5257,-4.5381,-4.5273,-4.5279,-4.5284,-4.5286,-4.5607,-4.5611,0,0,0,0,0,0,-4.501,-4.5024,-4.5171,-4.5176,-4.5062,-4.512,-4.5128,-4.5166,-4.5207,-4.5209,-4.516,-4.5154,-4.5239,-4.5249,-4.526,-4.5404,-4.5281,-4.5287,-4.5291,-4.5603,-4.5608,-4.5613,0,0,0,0,0,0,-4.5006,-4.5023,-4.5168,-4.5099,-4.5116,-4.5127,-4.517,-4.517,-4.5195,-4.5214,-4.5215,-4.5185,-4.5236,-4.525,-4.5345,-4.5406,-4.529,-4.5297,-4.5598,-4.5604,-4.561,-4.5693,0,0,0,0,0,0,-4.5,-4.5022,-4.5067,-4.51,-4.512,-4.5251,-4.5174,-4.5174,-4.5207,-4.52,-4.5237,-4.524,-4.5234,-4.5335,-4.5352,-4.5413,-4.5302,-4.5592,-4.5601,-4.5608,-4.5685,-4.5702,-4.5716,0,0,0,0,0,-4.4993,-4.5088,-4.507,-4.5088,-4.5177,-4.5255,-4.5266,-4.5257,-4.5213,-4.5258,-4.5271,-4.5239,-4.5397,-4.5345,-4.5364,-4.5428,-4.5588,-4.5598,-4.5608,-4.5678,-4.5698,-4.5716,0,0,0,0,0,0,-4.5061,-4.5092,-4.5072,-4.518,-4.5216,-4.5244,-4.5302,-4.5279,-4.5327,-4.5318,-4.5306,-4.5315,-4.5415,-4.5431,-4.5373,-4.5548,-4.5486,-4.55,-4.5533,-4.5552,-4.5568,-4.556,-4.5308,0,0,0,0,0,-4.5089,-4.5149,-4.5173,-4.5266,-4.5285,-4.5291,-4.5324,-4.5315,-4.535,-4.5365,-4.5384,-4.5421,-4.5479,-4.5517,-4.5571,-4.5689,-4.5696,-4.5742,-4.5758,-4.577,-4.5782,-4.5845,-4.5865,-4.5645,-4.5644,-4.5644,0,0,-4.5147,-4.5171,-4.5209,-4.5281,-4.5306,-4.5369,-4.5303,-4.5373,-4.5419,-4.5376,-4.5466,-4.5482,-4.5522,-4.5629,-4.5677,-4.5646,-4.5845,-4.5783,-4.5793,-4.5797,-4.5857,-4.5878,-4.5896,-4.5651,-4.565,-4.5649,0,0,-4.5283,-4.5308,-4.5388,-4.5416,-4.5456,-4.546,-4.548,-4.5513,-4.5522,-4.5613,-4.5581,-4.5638,-4.5738,-4.5768,-4.5796,-4.5948,-4.592,-4.5967,-4.6046,-4.6108,-4.6125,-4.614,-4.6193,-4.6212,-4.5978,-4.5979,-4.5979,0,-4.5349,-4.5442,-4.5432,-4.5504,-4.5536,-4.5501,-4.5582,-4.561,-4.5667,-4.569,-4.5655,-4.5781,-4.5806,-4.5919,-4.5956,-4.5981,-4.6002,-4.596,-4.6123,-4.6139,-4.6153,-4.6203,-4.6223,-4.5984,-4.5983,-4.5983,-4.5982,0,-4.5521,-4.5587,-4.5647,-4.5702,-4.5742,-4.5818,-4.5821,-4.5862,-4.5851,-4.5859,-4.5952,-4.5981,-4.6041,-4.6068,-4.6057,-4.618,-4.6159,-4.6125,-4.6061,-4.6179,-4.6226,-4.6245,-4.5991,-4.5989,-4.5988,-4.5987,0,0,-4.5699,-4.575,-4.5772,-4.5797,-4.584,-4.5891,-4.5967,-4.6025,-4.6061,-4.6103,-4.6165,-4.6253,-4.6221,-4.6253,-4.6246,-4.6301,-4.6418,-4.6259,-4.626,-4.6286,-4.6555,-4.6578,-4.6601,-4.6402,-4.6405,-4.6408,-4.6551,0,-4.5836,-4.5967,-4.5961,-4.6084,-4.6144,-4.6113,-4.6179,-4.6214,-4.6225,-4.6278,-4.629,-4.6351,-4.6306,-4.6325,-4.6378,-4.6392,-4.6471,-4.6383,-4.6459,-4.6462,-4.6447,-4.6625,-4.665,-4.6783,-4.6569,-4.6572,-4.6574,0,-4.6012,-4.6059,-4.6188,-4.6223,-4.6248,-4.6308,-4.6361,-4.6413,-4.6453,-4.6457,-4.6495,-4.6479,-4.6557,-4.6494,-4.6601,-4.6541,-4.6573,-4.6585,-4.659,-4.6594,-4.6523,-4.6632,-4.6825,-4.6844,-4.6603,-4.6601,-4.6599,0,-4.6126,-4.6223,-4.6312,-4.6335,-4.6379,-4.6421,-4.6442,-4.6478,-4.6514,-4.6562,-4.6585,-4.6642,-4.6672,-4.6717,-4.6718,-4.6672,-4.6826,-4.6764,-4.6831,-4.6831,-4.6862,-4.6859,-4.706,-4.6888,-4.6887,-4.6887,-4.6887,0,-4.6278,-4.6357,-4.6364,-4.6418,-4.6507,-4.6502,-4.659,-4.6606,-4.6639,-4.6697,-4.6675,-4.673,-4.6729,-4.6786,-4.6787,-4.6875,-4.689,-4.6895,-4.6894,-4.6896,-4.6895,-4.6914,-4.6903,-4.6892,-4.6891,-4.689,-4.6889,0,-4.6419,-4.6426,-4.6521,-4.6557,-4.6567,-4.6631,-4.6661,-4.6714,-4.6724,-4.6797,-4.6814,-4.683,-4.6896,-4.6902,-4.6979,-4.698,-4.7086,-4.7076,-4.7072,-4.7069,-4.7135,-4.7128,-4.7353,-4.7382,-4.7193,-4.7195,-4.7197,0,-4.6513,-4.6573,-4.6616,-4.6653,-4.6676,-4.6736,-4.6773,-4.6772,-4.6811,-4.6862,-4.6908,-4.6972,-4.7022,-4.7128,-4.7147,-4.7206,-4.7196,-4.7271,-4.7204,-4.7203,-4.7194,-4.7189,-4.7195,-4.7282,-4.7284,-4.7286,-4.7287,0,-4.6679,-4.6681,-4.6734,-4.679,-4.6835,-4.6879,-4.692,-4.6952,-4.6956,-4.7002,-4.7068,-4.7108,-4.7186,-4.7249,-4.7307,-4.7329,-4.7309,-4.7309,-4.7327,-4.7327,-4.7321,-4.7323,-4.7104,-4.7303,-4.7301,-4.73,-4.7299,-4.7299,-4.6798,-4.685,-4.6888,-4.6949,-4.698,-4.702,-4.7071,-4.7088,-4.7143,-4.7206,-4.7204,-4.7277,-4.7317,-4.7393,-4.742,-4.7478,-4.7453,-4.748,-4.7486,-4.7492,-4.7497,-4.7315,-4.7489,-4.7488,-4.7488,-4.7488,-4.7487,0,-4.6961,-4.6985,-4.7041,-4.7099,-4.7148,-4.7127,-4.7172,-4.7213,-4.7278,-4.7317,-4.7368,-4.7445,-4.7507,-4.7532,-4.7593,-4.7634,-4.7627,-4.765,-4.7645,-4.7651,-4.7518,-4.7494,-4.7655,-4.7655,-4.7655,-4.7655,-4.7655,-4.7655,-4.7051,-4.7138,-4.7145,-4.7248,-4.7271,-4.7342,-4.737,-4.7407,-4.7438,-4.7525,-4.7576,-4.7592,-4.7626,-4.769,-4.7746,-4.7752,-4.7774,-4.7801,-4.7803,-4.7677,-4.766,-4.7644,-4.7622,-4.7807,-4.7807,-4.793,-4.7932,-4.7932]},{"header":{"parameterUnit":"m.s-1","parameterCategory":1,"la1":30.2991,"la2":30.254,"lo1":-89.0895,"lo2":-89.0444,"dy":0.0017,"dx":0.0017,"nx":28,"ny":28,"refTime":"2024-03-04T03:00:00:Z","depth":0,"parameterNumber":3,"parameterNumberName":"V-component_of_WINDS"},"data":[0,0,0,0,0,0,0,0,0,0,0,0,0,0,0,0,0,0,0,0,0,0,0,0,0,0,0,0,0,0,0,0,0,0,0,0,0,0,0,0,0,0,0,0,0,0,0,0,0,0,0,0,0,0,0,0,0,0,1.365,1.365,0,1.3723,1.3723,1.3724,1.3757,1.3757,1.3757,1.3757,1.383,1.3832,1.3834,0,0,0,0,0,0,0,0,0,0,0,0,0,1.3539,1.3541,1.365,1.365,1.3651,1.3722,1.3723,1.3724,1.3757,1.3757,1.3757,1.3757,1.3829,1.3831,1.3834,0,0,0,0,0,0,0,0,0,0,0,0,0,1.3597,1.3542,1.3649,1.3676,1.368,1.3722,1.3723,1.3725,1.3757,1.3757,1.3757,1.3757,1.3828,1.3831,1.3834,1.3855,0,0,1.3843,1.3845,0,0,0,0,0,0,0,0,1.3594,1.3601,1.3672,1.3675,1.3678,1.3731,1.3711,1.3768,1.3757,1.3728,1.3757,1.3757,1.3797,1.3802,1.3816,1.3858,1.3861,1.3844,1.3845,1.3847,1.3847,0,0,0,0,0,0,0,1.359,1.3598,1.3678,1.3673,1.3677,1.3685,1.3693,1.3722,1.3762,1.373,1.3733,1.3741,1.3798,1.3813,1.3818,1.3862,1.3843,1.3846,1.3848,1.3849,1.3928,1.3928,0,0,0,0,0,0,1.3581,1.3594,1.3676,1.3681,1.3635,1.3687,1.3696,1.3714,1.3762,1.3769,1.3741,1.3742,1.3808,1.3815,1.3821,1.385,1.3847,1.3849,1.3851,1.3927,1.3928,1.3928,0,0,0,0,0,0,1.3579,1.3588,1.3673,1.3638,1.365,1.3689,1.3709,1.3715,1.373,1.377,1.3777,1.3749,1.3808,1.3817,1.3847,1.3853,1.3851,1.3853,1.3927,1.3928,1.3928,1.3906,0,0,0,0,0,0,1.3575,1.3587,1.3595,1.3638,1.3652,1.3698,1.3709,1.3717,1.3735,1.3738,1.3779,1.3786,1.3809,1.3842,1.385,1.3857,1.3856,1.3927,1.3927,1.3928,1.3907,1.3906,1.3906,0,0,0,0,0,1.3571,1.3585,1.3595,1.3605,1.3662,1.3698,1.3705,1.3732,1.3736,1.3744,1.377,1.3784,1.3851,1.3845,1.3854,1.3862,1.3926,1.3927,1.3928,1.3907,1.3906,1.3906,0,0,0,0,0,0,1.354,1.3591,1.3603,1.3631,1.366,1.3703,1.3715,1.373,1.3758,1.3759,1.3791,1.38,1.3828,1.3848,1.384,1.3886,1.389,1.3892,1.3871,1.3871,1.387,1.3865,1.3858,0,0,0,0,0,1.3536,1.3561,1.3605,1.3625,1.3639,1.3675,1.3691,1.371,1.3741,1.3753,1.3781,1.381,1.3838,1.3856,1.3883,1.391,1.3921,1.392,1.392,1.3919,1.3921,1.3939,1.3939,1.393,1.393,1.393,0,0,1.3529,1.356,1.3573,1.362,1.3644,1.367,1.3685,1.371,1.373,1.3757,1.3788,1.3809,1.3844,1.3874,1.3888,1.3891,1.3926,1.392,1.3919,1.3921,1.3939,1.394,1.3941,1.3931,1.3931,1.3931,0,0,1.3528,1.3554,1.3575,1.36,1.3638,1.3662,1.3667,1.371,1.3726,1.3757,1.3779,1.3803,1.3849,1.3874,1.3893,1.3906,1.392,1.3914,1.391,1.3927,1.3928,1.3929,1.3935,1.3936,1.3915,1.3915,1.3915,0,1.3514,1.3553,1.3583,1.3609,1.363,1.3657,1.3679,1.3702,1.3747,1.376,1.3764,1.3825,1.385,1.3887,1.3891,1.3904,1.3912,1.3909,1.3925,1.3927,1.3928,1.3934,1.3936,1.3914,1.3914,1.3914,1.3915,0,1.3534,1.3562,1.3574,1.3619,1.3641,1.3664,1.3699,1.3717,1.3735,1.3759,1.3792,1.3824,1.386,1.387,1.3886,1.391,1.3911,1.3919,1.3924,1.3927,1.3933,1.3936,1.3913,1.3913,1.3914,1.3914,0,0,1.3513,1.3577,1.3581,1.3603,1.3648,1.367,1.3696,1.3732,1.3748,1.3779,1.3802,1.3843,1.3852,1.3873,1.3893,1.3908,1.3918,1.3915,1.3917,1.3916,1.3948,1.3941,1.3943,1.3929,1.3929,1.393,1.3945,0,1.352,1.3568,1.3597,1.3633,1.366,1.3688,1.3711,1.3742,1.3766,1.3792,1.3818,1.3847,1.3856,1.387,1.3886,1.3914,1.3925,1.3913,1.3951,1.3952,1.3941,1.3946,1.3939,1.3952,1.3948,1.3948,1.3948,0,1.3533,1.3565,1.3604,1.365,1.3662,1.3682,1.3719,1.3744,1.378,1.3796,1.3822,1.3843,1.3872,1.3875,1.3917,1.3908,1.3925,1.3942,1.3943,1.3947,1.395,1.3951,1.3957,1.3959,1.3952,1.3952,1.3952,0,1.3515,1.3568,1.3599,1.3617,1.367,1.3684,1.3707,1.3743,1.3764,1.3796,1.3811,1.3845,1.3865,1.3892,1.3922,1.3921,1.3961,1.3966,1.3976,1.3975,1.3982,1.3981,1.3991,1.3993,1.3993,1.3993,1.3993,0,1.3519,1.3542,1.3592,1.3611,1.3639,1.3673,1.37,1.3725,1.3757,1.3782,1.3808,1.3831,1.387,1.3897,1.3921,1.3953,1.3961,1.3976,1.3982,1.3973,1.3972,1.3985,1.3985,1.3993,1.3993,1.3993,1.3993,0,1.3503,1.3538,1.3574,1.3623,1.3636,1.3654,1.3696,1.3716,1.3742,1.3773,1.3783,1.3824,1.3858,1.3891,1.3937,1.3953,1.3985,1.3992,1.3973,1.3976,1.3984,1.3983,1.4003,1.4008,1.4006,1.4006,1.4006,0,1.3503,1.3522,1.3574,1.3593,1.3616,1.3646,1.3669,1.3704,1.3726,1.3771,1.3786,1.3823,1.3854,1.3908,1.3941,1.3977,1.3986,1.3991,1.3991,1.3984,1.3987,1.3986,1.3989,1.399,1.3989,1.3989,1.3989,0,1.35,1.3518,1.3549,1.3588,1.3614,1.3645,1.3678,1.3692,1.3734,1.3758,1.3794,1.3818,1.3867,1.3903,1.3943,1.3967,1.3985,1.3989,1.3993,1.3985,1.3973,1.3981,1.3971,1.3988,1.3988,1.3988,1.3988,1.3988,1.3493,1.3512,1.3553,1.3588,1.3617,1.3647,1.3669,1.37,1.3731,1.3773,1.3793,1.383,1.3868,1.3924,1.3948,1.3978,1.3982,1.3988,1.3989,1.399,1.3989,1.3969,1.3985,1.3985,1.3985,1.3985,1.3985,0,1.3493,1.3521,1.3553,1.3599,1.3627,1.3644,1.3681,1.3703,1.3736,1.3771,1.3802,1.3845,1.3881,1.3919,1.3958,1.3975,1.3984,1.3984,1.3983,1.3988,1.3983,1.3976,1.3975,1.3975,1.3975,1.3975,1.3975,1.3975,1.3495,1.353,1.3552,1.3601,1.3629,1.3667,1.3687,1.3716,1.3744,1.3791,1.3822,1.3848,1.3884,1.3926,1.3961,1.3971,1.3984,1.3982,1.3994,1.3988,1.3988,1.3989,1.3983,1.3984,1.3984,1.3998,1.3998,1.3998]}]]